Location: Mahannah Oil Field
(37.4664°N, 96.6003°W)
Time: 03:19:10
(UTC+00:00)

Tiros 1 despin weight - Pass Details

Date: 02 February 2021
Orbit: 593 x 642 km, 48.2° (Epoch: 02 March)

Event Time Altitude Azimuth Distance (km) Brightness Sun altitude
Rises 17:20:22 0° 247° (WSW) 2,925 ? 32.8°
Reaches altitude 10° 17:22:44 10° 252° (WSW) 2,014 ? 32.9°
Maximum altitude 17:27:19 56° 331° (NNW) 747 ? 33.3°
Drops below altitude 10° 17:31:50 10° 50° (NE) 1,994 ? 33.6°
Sets 17:34:10 0° 54° (NE) 2,894 ? 33.8°
